Precipitable_Water
0.38 0.33 0.31 0.33 0.38 0.40 0.37 0.34 0.34 0.36 0.38 0.35 0.32 0.29 0.30 0.37 0.42 0.41 0.39 0.43 0.44 0.49 0.60 0.62 0.68 0.74 0.73 0.73 0.88 1.15 1.18 1.24 1.28 1.22 1.20 1.17 1.15 1.22 1.26 1.30 1.34 1.33 1.39 1.43
0.36 0.31 0.38 0.38 0.37 0.39 0.38 0.36 0.34 0.37 0.36 0.33 0.34 0.31 0.30 0.31 0.31 0.35 0.35 0.39 0.43 0.47 0.51 0.54 0.60 0.69 0.74 0.74 0.86 1.06 1.17 1.18 1.17 1.20 1.23 1.26 1.24 1.26 1.29 1.33 1.35 1.39 1.41 1.44
0.38 0.33 0.41 0.37 0.35 0.37 0.37 0.33 0.33 0.33 0.35 0.34 0.35 0.30 0.27 0.25 0.28 0.31 0.40 0.41 0.44 0.45 0.48 0.56 0.61 0.64 0.71 0.83 0.91 0.97 1.15 1.24 1.24 1.27 1.31 1.32 1.36 1.35 1.27 1.28 1.33 1.38 1.42 1.43
0.39 0.45 0.41 0.37 0.34 0.39 0.34 0.37 0.35 0.35 0.32 0.26 0.33 0.23 0.25 0.28 0.34 0.40 0.41 0.41 0.45 0.50 0.52 0.59 0.64 0.65 0.69 0.74 0.81 0.90 1.07 1.25 1.34 1.38 1.35 1.30 1.24 1.19 1.29 1.32 1.36 1.38 1.42 1.43
0.26 0.33 0.38 0.40 0.36 0.38 0.36 0.40 0.39 0.36 0.33 0.31 0.29 0.29 0.23 0.25 0.24 0.28 0.44 0.46 0.49 0.56 0.64 0.65 0.66 0.71 0.74 0.72 0.73 0.79 0.90 1.07 1.36 1.41 1.44 1.43 1.38 1.40 1.43 1.45 1.41 1.47 1.51 1.55
0.37 0.34 0.31 0.37 0.43 0.43 0.43 0.41 0.40 0.38 0.34 0.27 0.27 0.26 0.20 0.23 0.26 0.32 0.38 0.50 0.55 0.59 0.66 0.71 0.74 0.79 0.78 0.79 0.83 0.88 0.84 0.93 1.21 1.42 1.48 1.45 1.41 1.39 1.36 1.38 1.37 1.44 1.52 1.61
0.44 0.36 0.36 0.32 0.34 0.43 0.45 0.40 0.34 0.31 0.27 0.25 0.25 0.24 0.21 0.25 0.32 0.35 0.38 0.52 0.59 0.62 0.62 0.66 0.70 0.75 0.76 0.77 0.82 0.85 0.90 0.95 1.07 1.14 1.22 1.28 1.29 1.29 1.26 1.31 1.35 1.36 1.38 1.43
0.39 0.35 0.40 0.43 0.34 0.30 0.39 0.43 0.36 0.27 0.26 0.27 0.27 0.23 0.26 0.35 0.39 0.43 0.42 0.50 0.61 0.63 0.65 0.67 0.70 0.67 0.66 0.70 0.73 0.80 0.90 0.93 1.00 1.02 1.04 1.11 1.20 1.22 1.24 1.27 1.28 1.30 1.32 1.34
0.40 0.37 0.47 0.50 0.50 0.38 0.36 0.39 0.42 0.38 0.37 0.32 0.28 0.27 0.31 0.41 0.43 0.44 0.43 0.51 0.57 0.63 0.66 0.66 0.67 0.67 0.69 0.70 0.69 0.69 0.69 0.71 0.76 0.81 0.86 0.91 0.97 1.02 1.03 1.05 1.11 1.16 1.24 1.27
0.49 0.37 0.48 0.47 0.54 0.53 0.47 0.47 0.39 0.40 0.32 0.27 0.28 0.24 0.23 0.31 0.34 0.41 0.41 0.44 0.53 0.62 0.65 0.64 0.67 0.68 0.71 0.76 0.73 0.71 0.70 0.69 0.70 0.73 0.76 0.80 0.83 0.89 0.93 0.98 1.00 1.07 1.17 1.27
0.59 0.52 0.36 0.42 0.41 0.43 0.46 0.42 0.46 0.46 0.39 0.31 0.27 0.26 0.31 0.30 0.33 0.38 0.38 0.48 0.56 0.62 0.63 0.67 0.70 0.74 0.76 0.75 0.72 0.73 0.75 0.74 0.78 0.85 0.88 0.89 0.91 0.94 0.98 1.00 1.03 1.07 1.12 1.18
0.54 0.46 0.37 0.37 0.36 0.43 0.46 0.46 0.46 0.40 0.42 0.43 0.38 0.36 0.39 0.35 0.35 0.43 0.46 0.54 0.59 0.64 0.67 0.68 0.72 0.78 0.75 0.69 0.70 0.71 0.74 0.72 0.77 0.80 0.82 0.83 0.87 0.88 0.90 0.93 0.98 1.05 1.07 1.14
0.45 0.42 0.31 0.30 0.34 0.36 0.36 0.43 0.48 0.48 0.49 0.47 0.41 0.38 0.44 0.41 0.37 0.42 0.42 0.50 0.65 0.68 0.71 0.69 0.72 0.76 0.71 0.70 0.71 0.73 0.73 0.73 0.77 0.79 0.79 0.79 0.81 0.82 0.84 0.88 0.90 0.94 0.95 0.98
0.34 0.28 0.30 0.27 0.32 0.43 0.42 0.45 0.44 0.42 0.40 0.44 0.46 0.44 0.38 0.40 0.43 0.43 0.50 0.53 0.62 0.69 0.69 0.69 0.73 0.75 0.73 0.74 0.74 0.72 0.73 0.76 0.77 0.77 0.78 0.78 0.79 0.80 0.83 0.86 0.87 0.89 0.93 0.94
0.31 0.20 0.25 0.29 0.34 0.40 0.38 0.41 0.44 0.45 0.41 0.37 0.35 0.43 0.41 0.43 0.42 0.45 0.51 0.60 0.67 0.68 0.68 0.72 0.74 0.74 0.74 0.73 0.73 0.75 0.75 0.76 0.78 0.78 0.78 0.77 0.78 0.79 0.78 0.77 0.78 0.79 0.80 0.83
0.27 0.22 0.25 0.18 0.24 0.31 0.34 0.33 0.31 0.39 0.41 0.37 0.36 0.35 0.40 0.47 0.50 0.50 0.48 0.64 0.69 0.71 0.75 0.77 0.79 0.75 0.73 0.74 0.74 0.75 0.75 0.77 0.78 0.75 0.75 0.78 0.78 0.78 0.76 0.74 0.72 0.75 0.75 0.80
0.29 0.30 0.26 0.12 0.19 0.29 0.24 0.26 0.30 0.32 0.36 0.37 0.32 0.31 0.44 0.46 0.51 0.51 0.54 0.65 0.63 0.68 0.72 0.78 0.78 0.76 0.75 0.77 0.76 0.74 0.78 0.81 0.78 0.77 0.79 0.78 0.75 0.72 0.72 0.72 0.72 0.70 0.72 0.75
0.23 0.24 0.23 0.16 0.18 0.11 0.15 0.26 0.34 0.32 0.34 0.39 0.40 0.35 0.41 0.49 0.56 0.55 0.70 0.68 0.63 0.74 0.77 0.79 0.79 0.79 0.77 0.77 0.77 0.79 0.79 0.79 0.78 0.76 0.75 0.75 0.71 0.69 0.69 0.68 0.67 0.65 0.66 0.62
0.26 0.22 0.17 0.14 0.12 0.15 0.12 0.12 0.30 0.38 0.35 0.40 0.37 0.38 0.41 0.45 0.57 0.60 0.66 0.86 0.71 0.80 0.83 0.84 0.84 0.80 0.78 0.77 0.80 0.80 0.79 0.78 0.78 0.76 0.74 0.71 0.68 0.65 0.64 0.62 0.60 0.60 0.57 0.56
0.23 0.22 0.20 0.18 0.13 0.10 0.08 0.16 0.35 0.46 0.26 0.50 0.53 0.43 0.40 0.48 0.45 0.56 0.70 0.78 0.86 0.85 0.87 0.88 0.85 0.81 0.78 0.80 0.82 0.79 0.77 0.78 0.77 0.76 0.72 0.70 0.65 0.61 0.58 0.55 0.53 0.55 0.55 0.53
0.17 0.19 0.18 0.20 0.18 0.17 0.13 0.16 0.31 0.28 0.26 0.54 0.66 0.64 0.52 0.51 0.55 0.66 0.73 0.80 0.90 0.91 0.87 0.85 0.79 0.75 0.77 0.81 0.83 0.78 0.77 0.74 0.76 0.74 0.70 0.64 0.58 0.53 0.54 0.54 0.54 0.52 0.49 0.48
0.17 0.17 0.16 0.18 0.17 0.14 0.23 0.23 0.24 0.32 0.47 0.57 0.71 0.68 0.61 0.64 0.63 0.77 0.77 0.83 0.89 0.84 0.81 0.79 0.75 0.76 0.80 0.83 0.81 0.76 0.72 0.74 0.72 0.67 0.59 0.54 0.54 0.55 0.53 0.50 0.48 0.46 0.43 0.41
0.19 0.20 0.18 0.18 0.18 0.22 0.22 0.31 0.41 0.43 0.43 0.59 0.76 0.82 0.71 0.67 0.70 0.74 0.78 0.83 0.89 0.86 0.81 0.83 0.80 0.79 0.81 0.80 0.76 0.70 0.70 0.68 0.62 0.55 0.53 0.52 0.52 0.51 0.48 0.44 0.42 0.39 0.38 0.35
0.24 0.25 0.21 0.21 0.19 0.21 0.26 0.29 0.34 0.43 0.53 0.69 0.80 0.87 0.74 0.68 0.73 0.74 0.78 0.83 0.84 0.84 0.84 0.84 0.83 0.76 0.73 0.74 0.72 0.69 0.66 0.60 0.55 0.51 0.49 0.48 0.45 0.43 0.42 0.40 0.37 0.33 0.31 0.28
0.23 0.24 0.20 0.21 0.26 0.26 0.26 0.27 0.34 0.41 0.51 0.68 0.79 0.90 0.79 0.72 0.75 0.79 0.82 0.83 0.84 0.83 0.82 0.79 0.74 0.73 0.72 0.70 0.68 0.63 0.57 0.53 0.48 0.46 0.44 0.40 0.40 0.38 0.35 0.33 0.31 0.30 0.31 0.30
0.21 0.21 0.20 0.17 0.20 0.24 0.22 0.26 0.31 0.39 0.45 0.60 0.78 0.82 0.80 0.75 0.72 0.76 0.78 0.82 0.81 0.79 0.77 0.74 0.74 0.71 0.69 0.67 0.60 0.55 0.52 0.48 0.44 0.40 0.39 0.37 0.34 0.31 0.29 0.27 0.26 0.30 0.31 0.30
Wind_Speed
31 31 31 30 28 30 28 28 28 26 23 25 24 26 24 23 21 20 20 17 17 17 17 19 19 19 19 20 19 23 23 23 24 25 25 26 26 27 26 26 26 27 26 26
34 38 34 32 32 32 32 32 30 30 29 27 29 28 26 24 25 24 21 17 14 13 14 15 15 16 17 18 19 21 22 22 22 22 23 24 25 26 27 28 28 28 28 29
37 39 34 36 35 34 34 34 31 32 30 31 30 31 28 27 28 22 18 17 15 13 13 11 11 12 14 15 17 20 22 23 23 23 23 23 23 25 27 27 28 29 30 31
40 38 37 38 38 35 35 33 33 33 30 29 27 30 27 21 17 19 19 18 16 13 12 11 11 12 13 16 17 20 21 23 24 24 24 24 25 26 26 27 27 28 28 30
44 42 40 39 40 36 37 33 31 30 31 30 32 25 28 26 25 24 22 20 17 15 12 10 10 9 10 11 14 17 20 19 21 22 22 23 24 25 26 26 27 28 28 29
46 45 43 42 40 38 37 35 33 31 30 30 33 27 32 28 27 25 20 23 20 16 14 13 12 11 10 9 10 10 11 17 15 17 19 20 21 22 23 24 26 28 29 29
44 47 45 42 41 38 36 33 29 30 31 30 32 30 34 31 28 27 19 23 22 19 17 16 15 12 11 9 9 8 6 7 11 13 15 16 18 19 21 24 25 27 28 30
35 38 42 41 42 40 37 34 31 37 32 29 32 32 30 29 21 17 19 20 21 20 19 18 16 15 13 12 11 11 11 11 12 13 15 17 19 21 23 24 26 28 30 32
34 39 42 40 34 39 41 39 39 36 37 32 34 36 32 22 21 23 23 21 23 22 20 19 18 16 15 14 13 13 13 13 14 16 17 19 20 22 25 26 28 30 31 33
27 35 35 45 40 37 33 31 37 38 36 38 36 38 33 30 25 23 27 27 27 24 23 22 20 18 18 17 16 15 15 16 16 17 19 20 22 24 26 28 30 32 34 35
18 24 33 34 39 36 33 32 33 35 35 34 37 37 36 35 31 26 29 26 27 26 25 21 20 20 20 19 18 17 17 17 17 18 19 21 23 24 26 28 30 33 34 36
22 25 28 34 37 37 35 37 34 28 28 31 34 34 36 34 32 25 22 26 27 26 23 21 21 21 21 20 20 19 19 19 19 20 21 23 24 26 28 30 33 34 36 37
23 20 24 29 30 33 35 35 43 34 32 37 29 34 35 35 36 32 30 25 26 26 25 24 22 22 23 22 21 21 21 21 22 22 23 26 28 30 32 33 34 36 37 37
26 29 30 31 32 29 27 30 35 37 35 31 31 36 40 38 36 32 26 27 27 28 26 25 25 24 24 23 22 22 22 22 23 24 26 29 31 32 33 35 37 37 37 37
30 34 33 39 39 36 36 36 36 35 38 40 43 38 38 37 36 36 33 27 25 28 29 28 27 26 25 24 23 23 23 24 25 27 29 30 32 34 36 37 38 38 37 36
33 34 33 41 40 38 35 40 41 41 40 37 41 43 44 38 39 39 36 27 26 29 28 26 26 27 26 25 24 24 24 25 27 29 30 31 34 36 37 38 37 35 34 33
35 31 31 41 34 32 36 39 38 41 42 39 40 42 35 35 36 36 31 30 33 34 32 29 27 26 24 24 24 24 25 27 28 28 31 33 35 35 36 36 35 33 32 31
40 37 34 38 36 36 41 36 34 40 44 43 40 40 38 34 31 31 23 34 34 32 30 26 25 24 24 23 23 23 25 26 27 29 32 34 36 36 36 35 32 30 29 29
38 38 37 39 39 42 44 40 34 29 39 40 44 39 37 39 31 26 28 26 32 28 26 24 25 24 23 23 23 24 25 28 29 31 33 35 36 34 34 31 29 28 27 26
28 34 35 37 36 36 42 32 30 24 35 27 31 38 40 36 34 28 24 22 15 21 22 22 22 22 23 23 23 25 27 28 30 32 34 34 33 31 30 28 26 26 25 26
27 26 29 33 38 41 45 39 34 28 25 23 24 31 33 32 33 30 25 25 25 22 23 23 22 22 22 23 23 25 27 29 31 32 32 31 30 29 27 27 27 27 27 27
32 29 30 33 36 43 31 30 34 29 29 29 28 28 25 27 22 23 22 23 24 23 23 22 21 21 22 23 25 26 27 30 31 30 30 29 28 27 27 27 27 28 29 30
32 32 33 35 37 44 42 37 35 33 32 31 28 29 19 20 20 19 20 19 19 23 20 20 19 19 21 22 24 27 29 30 28 27 26 26 26 26 27 28 29 30 31 32
31 32 35 37 41 45 43 42 40 37 32 32 33 32 20 19 20 19 18 17 19 20 20 21 20 18 20 22 25 27 27 26 25 25 24 24 25 26 27 28 29 31 32 34
33 34 36 37 37 39 42 42 37 38 37 31 32 30 25 20 19 19 17 18 18 18 18 17 18 19 20 22 22 23 23 23 22 23 24 25 26 27 28 30 32 34 35 36
36 37 37 38 37 37 39 39 39 38 40 37 33 24 22 21 20 16 15 17 16 17 17 17 17 18 19 20 19 20 20 21 22 23 25 25 27 29 32 34 35 36 38 40
Wind_Direction
250 251 251 254 253 257 261 264 268 270 276 280 275 274 277 277 275 277 281 279 270 266 264 265 261 258 257 257 242 237 241 245 249 248 250 254 259 259 261 262 265 266 266 266
250 250 252 256 255 259 261 265 267 265 269 269 273 273 275 275 274 273 275 275 276 269 269 269 256 258 260 248 246 242 244 245 248 249 251 257 259 261 262 264 266 267 267 266
250 253 253 252 253 256 259 261 263 267 271 271 274 272 274 272 268 260 263 265 270 272 272 267 265 263 257 254 252 248 250 248 248 251 255 259 262 264 265 266 266 269 268 267
253 254 253 254 255 251 258 260 261 263 265 265 264 272 275 275 268 255 255 256 261 260 265 268 269 269 265 263 263 261 256 251 251 252 256 259 263 266 269 268 270 271 272 268
252 253 253 254 255 254 258 261 261 265 268 270 262 264 267 267 267 268 250 247 251 253 254 258 265 269 270 272 274 266 257 256 252 252 256 263 267 269 270 270 270 273 274 271
251 251 251 253 254 255 258 259 258 261 260 259 262 263 266 265 269 269 247 244 244 243 252 255 257 262 269 278 282 280 262 248 258 256 260 266 270 271 273 273 275 276 276 277
250 250 251 252 256 257 251 252 255 253 252 257 260 259 262 266 263 261 267 229 241 243 248 249 251 256 261 269 276 279 273 263 258 264 266 270 273 275 278 280 281 281 281 281
254 252 247 247 248 252 250 249 250 253 253 258 254 253 258 265 257 255 247 239 240 244 247 246 247 254 257 265 273 275 269 267 267 270 274 277 279 281 283 284 284 284 284 284
257 258 256 255 258 246 247 246 252 253 258 258 259 263 262 259 253 254 256 241 242 244 244 242 246 252 257 261 267 273 278 279 281 282 285 286 288 288 288 288 288 288 288 288
270 265 249 256 255 253 250 258 242 244 250 251 252 253 254 255 260 256 256 248 241 243 241 239 244 252 256 258 263 271 278 280 282 285 288 290 292 292 292 292 292 292 292 292
276 261 263 253 244 250 250 249 249 248 246 248 252 251 252 255 262 271 268 240 237 243 234 234 245 252 254 255 261 268 275 279 283 286 290 293 296 297 297 297 297 297 296 296
273 262 262 260 255 252 250 249 248 248 253 256 255 253 251 254 250 263 266 243 239 232 228 239 247 251 252 255 260 268 274 281 282 286 291 296 299 301 301 301 301 301 300 299
272 262 266 259 256 251 252 243 247 254 247 250 257 258 256 258 256 259 264 255 234 229 233 242 247 250 250 254 260 268 274 279 282 285 292 297 300 302 303 303 302 302 302 302
260 258 253 258 264 273 265 259 246 245 251 253 258 257 260 260 260 262 254 255 234 231 234 241 248 252 250 253 260 267 274 279 283 288 294 299 302 304 304 304 304 303 303 302
259 259 259 259 262 265 270 269 262 255 245 246 252 257 263 263 259 258 260 252 235 236 239 242 246 247 248 253 260 267 274 279 284 291 296 300 303 305 306 306 305 304 303 301
255 258 263 264 263 261 270 264 260 259 258 257 254 259 258 262 261 263 261 237 230 241 243 240 244 243 248 254 261 268 274 280 287 293 296 301 305 306 308 308 307 306 305 304
259 261 264 260 263 269 261 255 258 260 259 257 257 259 263 255 255 269 248 233 244 242 239 240 242 244 249 257 263 269 275 283 289 293 298 301 305 306 309 310 309 306 306 307
256 258 259 262 267 256 253 257 264 268 263 256 256 257 258 255 255 257 267 238 239 231 232 235 239 243 250 258 264 272 279 285 290 296 299 302 304 306 308 310 310 308 307 309
255 255 255 255 254 261 262 252 259 271 273 257 253 256 259 251 258 254 244 267 219 218 226 234 238 244 253 259 267 274 281 287 291 297 300 304 305 305 307 309 310 310 309 309
253 249 248 247 248 249 250 248 249 287 263 263 257 256 255 254 247 248 240 231 206 217 228 232 239 246 255 263 269 278 285 289 293 298 301 304 305 306 307 308 309 310 310 310
264 262 254 251 251 252 250 253 259 256 257 284 283 279 251 248 245 238 236 229 226 227 231 237 244 253 260 266 272 282 287 292 295 298 301 303 304 304 305 305 307 308 309 309
261 260 258 259 256 252 249 251 238 249 268 276 279 281 252 231 233 220 222 226 225 228 233 238 244 255 262 270 278 285 290 294 296 298 300 301 302 302 304 305 306 306 306 307
260 261 265 257 257 255 250 254 253 257 266 269 266 268 236 216 209 209 216 217 228 221 231 240 248 256 268 275 281 288 293 295 295 297 299 302 303 303 304 306 306 305 306 307
262 266 268 268 259 255 253 249 251 254 258 266 269 285 216 216 213 217 222 225 224 230 240 244 253 257 271 281 288 292 295 295 295 297 300 302 303 305 306 306 307 307 307 308
267 269 269 266 263 258 250 246 250 249 253 261 262 253 216 211 215 221 228 229 231 238 239 244 254 268 278 286 292 295 296 296 297 299 301 303 304 306 306 306 307 307 307 308
264 264 266 265 260 257 253 248 250 247 248 258 267 235 215 215 214 221 221 225 230 231 238 250 263 275 283 289 292 296 299 301 301 301 303 304 305 306 307 307 307 308 307 307